TAM3020 SAWG-SCTE

Flight info

Callsign TAM3020
Flight time 1h 36m
Altitude 38000
Route ASOPA DCT BAL DCT OSARA OSARA5B
Aircraft B77L/H-SDE1E2E3FGHIJ2J3J4J5M1RWXY/LB1D1

Departure

Time 2026-04-19 09:59
Airport Piloto Civil Norberto Fernández International Airport (SAWG)

Arrival

Time 2026-04-19 11:36
Airport El Tepual International Airport (SCTE)
Time Latitude Longitude Altitude Speed Heading
2026-04-19 08:48 -51.61115 -69.30600 54 ft 0 kts 277°
2026-04-19 09:40 -51.61116 -69.30588 60 ft 2 kts 280°
2026-04-19 09:40 -51.61121 -69.30563 57 ft 2 kts 307°
2026-04-19 09:41 -51.61134 -69.30549 51 ft 2 kts 357°
2026-04-19 09:41 -51.61142 -69.30549 51 ft 0 kts 360°
2026-04-19 09:43 -51.61141 -69.30549 51 ft 0 kts 360°
2026-04-19 09:43 -51.61136 -69.30549 51 ft 1 kts 359°
2026-04-19 09:44 -51.61129 -69.30549 51 ft 1 kts 359°
2026-04-19 09:44 -51.61119 -69.30550 55 ft 2 kts 359°
2026-04-19 09:44 -51.61106 -69.30550 51 ft 2 kts 359°
2026-04-19 09:44 -51.61090 -69.30551 57 ft 3 kts 358°
2026-04-19 09:45 -51.61071 -69.30552 55 ft 3 kts 358°
2026-04-19 09:45 -51.61055 -69.30553 55 ft 0 kts 358°
2026-04-19 09:47 -51.61054 -69.30553 55 ft 0 kts 358°
2026-04-19 09:50 -51.61065 -69.30552 56 ft 2 kts 358°
2026-04-19 09:50 -51.61066 -69.30552 55 ft 0 kts 358°
2026-04-19 09:52 -51.61065 -69.30552 55 ft 1 kts 355°
2026-04-19 09:52 -51.61059 -69.30562 56 ft 1 kts 314°
2026-04-19 09:52 -51.61053 -69.30577 53 ft 1 kts 305°
2026-04-19 09:53 -51.61052 -69.30580 55 ft 3 kts 304°
2026-04-19 09:53 -51.61008 -69.30619 51 ft 9 kts 348°
2026-04-19 09:53 -51.60960 -69.30621 56 ft 3 kts
2026-04-19 09:53 -51.60928 -69.30589 55 ft 2 kts 18°
2026-04-19 09:54 -51.60918 -69.30612 57 ft 3 kts 276°
2026-04-19 09:54 -51.60947 -69.30629 54 ft 9 kts 184°
2026-04-19 09:54 -51.61026 -69.30580 52 ft 15 kts 109°
2026-04-19 09:54 -51.61026 -69.30354 59 ft 24 kts 86°
2026-04-19 09:55 -51.61017 -69.30062 53 ft 27 kts 89°
2026-04-19 09:55 -51.61001 -69.29801 57 ft 25 kts 87°
2026-04-19 09:55 -51.60991 -69.29515 58 ft 27 kts 83°
2026-04-19 09:55 -51.60971 -69.29209 51 ft 28 kts 86°
2026-04-19 09:56 -51.60950 -69.28882 53 ft 30 kts 79°
2026-04-19 09:56 -51.60924 -69.28743 52 ft 6 kts 47°
2026-04-19 09:56 -51.60876 -69.28723 52 ft 5 kts
2026-04-19 09:57 -51.60847 -69.28724 53 ft 10 kts 354°
2026-04-19 09:57 -51.60776 -69.28759 52 ft 11 kts 308°
2026-04-19 09:58 -51.60768 -69.28847 54 ft 0 kts 264°
2026-04-19 09:58 -51.60771 -69.28900 56 ft 17 kts 264°
2026-04-19 09:59 -51.60806 -69.29527 58 ft 109 kts 265°
2026-04-19 09:59 -51.60869 -69.31217 477 ft 169 kts 267°
2026-04-19 09:59 -51.60942 -69.33023 2180 ft 152 kts 262°
2026-04-19 09:59 -51.61022 -69.34684 3843 ft 151 kts 262°
2026-04-19 10:00 -51.61107 -69.36415 5281 ft 158 kts 263°
2026-04-19 10:00 -51.60874 -69.38294 5859 ft 196 kts 297°
2026-04-19 10:00 -51.59799 -69.39959 6092 ft 233 kts 314°
2026-04-19 10:00 -51.58513 -69.41775 6551 ft 254 kts 311°
2026-04-19 10:01 -51.57224 -69.43784 7486 ft 261 kts 309°
2026-04-19 10:01 -51.55963 -69.45903 8523 ft 264 kts 308°
2026-04-19 10:01 -51.54730 -69.48112 9598 ft 267 kts 307°
2026-04-19 10:01 -51.53513 -69.50400 10454 ft 276 kts 306°
2026-04-19 10:02 -51.52238 -69.52892 10799 ft 304 kts 305°
2026-04-19 10:02 -51.50851 -69.55678 11053 ft 334 kts 305°
2026-04-19 10:02 -51.49372 -69.58700 11647 ft 351 kts 304°
2026-04-19 10:02 -51.47860 -69.61820 12565 ft 359 kts 304°
2026-04-19 10:03 -51.46324 -69.65013 13604 ft 363 kts 304°
2026-04-19 10:03 -51.44783 -69.68234 14629 ft 365 kts 304°
2026-04-19 10:03 -51.43253 -69.71444 15512 ft 370 kts 304°
2026-04-19 10:03 -51.41681 -69.74747 16344 ft 377 kts 304°
2026-04-19 10:04 -51.40080 -69.78113 17203 ft 382 kts 304°
2026-04-19 10:04 -51.38458 -69.81521 18071 ft 387 kts 304°
2026-04-19 10:04 -51.36810 -69.84976 18825 ft 392 kts 304°
2026-04-19 10:04 -51.35148 -69.88456 19604 ft 396 kts 304°
2026-04-19 10:05 -51.33468 -69.91970 20385 ft 400 kts 304°
2026-04-19 10:05 -51.31769 -69.95520 21118 ft 404 kts 304°
2026-04-19 10:05 -51.30051 -69.99103 21846 ft 409 kts 304°
2026-04-19 10:05 -51.28310 -70.02731 22559 ft 413 kts 304°
2026-04-19 10:06 -51.26553 -70.06384 23278 ft 417 kts 304°
2026-04-19 10:06 -51.24776 -70.10075 23948 ft 420 kts 304°
2026-04-19 10:06 -51.22994 -70.13770 24672 ft 421 kts 304°
2026-04-19 10:06 -51.21206 -70.17472 25329 ft 423 kts 304°
2026-04-19 10:07 -51.19401 -70.21206 25931 ft 426 kts 304°
2026-04-19 10:07 -51.17583 -70.24962 26516 ft 430 kts 304°
2026-04-19 10:07 -51.15749 -70.28746 27104 ft 433 kts 304°
2026-04-19 10:07 -51.13900 -70.32552 27702 ft 436 kts 304°
2026-04-19 10:08 -51.12039 -70.36379 28273 ft 439 kts 304°
2026-04-19 10:08 -51.10166 -70.40226 28798 ft 441 kts 304°
2026-04-19 10:08 -51.08279 -70.44097 29363 ft 443 kts 304°
2026-04-19 10:08 -51.06289 -70.47830 29762 ft 447 kts 313°
2026-04-19 10:09 -51.03757 -70.50782 30170 ft 458 kts 327°
2026-04-19 10:09 -51.00793 -70.52713 30635 ft 462 kts 336°
2026-04-19 10:09 -50.97739 -70.54359 31046 ft 464 kts 336°
2026-04-19 10:09 -50.94687 -70.56012 31538 ft 464 kts 336°
2026-04-19 10:10 -50.91637 -70.57683 32055 ft 463 kts 336°
2026-04-19 10:10 -50.88600 -70.59367 32551 ft 462 kts 336°
2026-04-19 10:10 -50.85578 -70.61059 33037 ft 461 kts 336°
2026-04-19 10:10 -50.82550 -70.62764 33480 ft 462 kts 336°
2026-04-19 10:11 -50.79524 -70.64473 33915 ft 462 kts 336°
2026-04-19 10:11 -50.76498 -70.66182 34255 ft 463 kts 336°
2026-04-19 10:11 -50.73503 -70.67871 34576 ft 463 kts 336°
2026-04-19 10:11 -50.70467 -70.69580 34905 ft 464 kts 336°
2026-04-19 10:12 -50.67424 -70.71291 35230 ft 465 kts 336°
2026-04-19 10:12 -50.64366 -70.73006 35533 ft 465 kts 336°
2026-04-19 10:12 -50.61316 -70.74714 35778 ft 468 kts 336°
2026-04-19 10:13 -50.55134 -70.78172 35859 ft 471 kts 336°
2026-04-19 10:13 -50.48984 -70.81594 35854 ft 466 kts 336°
2026-04-19 10:14 -50.42889 -70.84979 35850 ft 463 kts 336°
2026-04-19 10:14 -50.36819 -70.88345 35862 ft 463 kts 336°
2026-04-19 10:15 -50.30745 -70.91703 35869 ft 463 kts 336°
2026-04-19 10:15 -50.24662 -70.95058 35870 ft 464 kts 336°
2026-04-19 10:16 -50.18566 -70.98410 35863 ft 465 kts 337°
2026-04-19 10:16 -50.12495 -71.01737 35877 ft 466 kts 337°
2026-04-19 10:17 -50.06374 -71.05085 35873 ft 467 kts 337°
2026-04-19 10:17 -50.00242 -71.08429 35859 ft 467 kts 337°
2026-04-19 10:18 -49.94108 -71.11763 35879 ft 467 kts 337°
2026-04-19 10:18 -49.87972 -71.15091 35888 ft 467 kts 337°
2026-04-19 10:19 -49.78767 -71.20066 35874 ft 467 kts 337°
2026-04-19 10:19 -49.72637 -71.23369 35889 ft 466 kts 337°
2026-04-19 10:20 -49.66518 -71.26657 35886 ft 466 kts 337°
2026-04-19 10:20 -49.60251 -71.29361 35899 ft 470 kts 346°
2026-04-19 10:21 -49.53713 -71.30404 35885 ft 473 kts 352°
2026-04-19 10:21 -49.47141 -71.31108 35889 ft 473 kts 352°
2026-04-19 10:22 -49.40575 -71.31840 35894 ft 473 kts 352°
2026-04-19 10:22 -49.34012 -71.32596 35877 ft 473 kts 352°
2026-04-19 10:23 -49.27449 -71.33360 35889 ft 473 kts 352°
2026-04-19 10:23 -49.20889 -71.34122 35900 ft 473 kts 352°
2026-04-19 10:24 -49.14328 -71.34881 35893 ft 473 kts 352°
2026-04-19 10:24 -49.07812 -71.35632 35900 ft 473 kts 352°
2026-04-19 10:25 -49.01256 -71.36386 35907 ft 473 kts 352°
2026-04-19 10:25 -48.94696 -71.37139 35908 ft 473 kts 352°
2026-04-19 10:26 -48.88130 -71.37890 35897 ft 473 kts 352°
2026-04-19 10:26 -48.81573 -71.38636 35914 ft 472 kts 352°
2026-04-19 10:27 -48.75017 -71.39382 35918 ft 472 kts 352°
2026-04-19 10:27 -48.68470 -71.40127 35930 ft 472 kts 352°
2026-04-19 10:28 -48.61925 -71.40868 35926 ft 471 kts 352°
2026-04-19 10:28 -48.55391 -71.41604 35932 ft 471 kts 352°
2026-04-19 10:29 -48.48861 -71.42338 35940 ft 471 kts 352°
2026-04-19 10:29 -48.42332 -71.43071 35938 ft 471 kts 352°
2026-04-19 10:30 -48.35796 -71.43803 35959 ft 471 kts 352°
2026-04-19 10:30 -48.29250 -71.44535 35961 ft 472 kts 352°
2026-04-19 10:31 -48.22688 -71.45266 35944 ft 473 kts 352°
2026-04-19 10:31 -48.16124 -71.45995 35959 ft 473 kts 352°
2026-04-19 10:32 -48.09555 -71.46723 35962 ft 474 kts 352°
2026-04-19 10:32 -48.02981 -71.47450 35976 ft 474 kts 352°
2026-04-19 10:33 -47.96408 -71.48174 35970 ft 474 kts 352°
2026-04-19 10:33 -47.89837 -71.48898 35967 ft 473 kts 352°
2026-04-19 10:34 -47.83280 -71.49617 35980 ft 472 kts 352°
2026-04-19 10:34 -47.77833 -71.50213 35966 ft 472 kts 352°
2026-04-19 10:35 -47.71286 -71.50928 35973 ft 471 kts 352°
2026-04-19 10:35 -47.64744 -71.51640 35982 ft 471 kts 352°
2026-04-19 10:36 -47.58212 -71.52350 35983 ft 471 kts 352°
2026-04-19 10:36 -47.51683 -71.53058 35974 ft 470 kts 352°
2026-04-19 10:37 -47.45154 -71.53764 35982 ft 470 kts 352°
2026-04-19 10:37 -47.38630 -71.54468 35990 ft 470 kts 352°
2026-04-19 10:38 -47.32110 -71.55168 35989 ft 470 kts 352°
2026-04-19 10:38 -47.25585 -71.55868 35984 ft 470 kts 352°
2026-04-19 10:39 -47.19060 -71.56567 35995 ft 470 kts 352°
2026-04-19 10:39 -47.12534 -71.57265 35980 ft 470 kts 352°
2026-04-19 10:40 -47.06019 -71.57960 36000 ft 469 kts 352°
2026-04-19 10:40 -46.99549 -71.58646 36006 ft 469 kts 352°
2026-04-19 10:41 -46.93043 -71.59335 36001 ft 469 kts 352°
2026-04-19 10:41 -46.86534 -71.60023 36011 ft 469 kts 352°
2026-04-19 10:42 -46.80029 -71.60710 36012 ft 469 kts 352°
2026-04-19 10:42 -46.73524 -71.61394 36012 ft 469 kts 352°
2026-04-19 10:43 -46.67021 -71.62076 36015 ft 468 kts 352°
2026-04-19 10:43 -46.60517 -71.62758 36016 ft 469 kts 352°
2026-04-19 10:44 -46.54006 -71.63438 36012 ft 469 kts 352°
2026-04-19 10:44 -46.47498 -71.64116 36008 ft 469 kts 351°
2026-04-19 10:45 -46.40982 -71.64793 36017 ft 469 kts 351°
2026-04-19 10:45 -46.34474 -71.65469 36018 ft 469 kts 351°
2026-04-19 10:46 -46.27967 -71.66142 36017 ft 469 kts 351°
2026-04-19 10:46 -46.21500 -71.66809 36032 ft 469 kts 351°
2026-04-19 10:47 -46.14993 -71.67478 36020 ft 469 kts 351°
2026-04-19 10:47 -46.08485 -71.68146 36012 ft 469 kts 351°
2026-04-19 10:48 -46.01969 -71.68813 36001 ft 469 kts 351°
2026-04-19 10:48 -45.95448 -71.69478 35995 ft 470 kts 351°
2026-04-19 10:49 -45.89025 -71.70782 35989 ft 463 kts 341°
2026-04-19 10:49 -45.82817 -71.73135 35999 ft 461 kts 340°
2026-04-19 10:50 -45.76615 -71.75461 36016 ft 461 kts 341°
2026-04-19 10:50 -45.70412 -71.77747 36017 ft 460 kts 341°
2026-04-19 10:51 -45.64223 -71.80007 36078 ft 458 kts 341°
2026-04-19 10:51 -45.58047 -71.82256 36087 ft 457 kts 341°
2026-04-19 10:52 -45.51926 -71.84480 36086 ft 456 kts 341°
2026-04-19 10:52 -45.45781 -71.86709 36088 ft 455 kts 341°
2026-04-19 10:53 -45.39646 -71.88928 36083 ft 454 kts 341°
2026-04-19 10:53 -45.33514 -71.91141 36089 ft 454 kts 340°
2026-04-19 10:54 -45.27387 -71.93351 36101 ft 454 kts 340°
2026-04-19 10:54 -45.21261 -71.95554 36102 ft 455 kts 340°
2026-04-19 10:55 -45.15118 -71.97758 36107 ft 455 kts 340°
2026-04-19 10:55 -45.08974 -71.99957 36099 ft 455 kts 340°
2026-04-19 10:56 -45.02838 -72.02149 36098 ft 455 kts 340°
2026-04-19 10:56 -44.96707 -72.04333 36123 ft 454 kts 340°
2026-04-19 10:57 -44.90623 -72.06497 36116 ft 453 kts 340°
2026-04-19 10:57 -44.84516 -72.08661 36116 ft 452 kts 340°
2026-04-19 10:58 -44.78423 -72.10820 36124 ft 451 kts 340°
2026-04-19 10:58 -44.72348 -72.12964 36132 ft 449 kts 340°
2026-04-19 10:59 -44.66294 -72.15100 36137 ft 448 kts 340°
2026-04-19 10:59 -44.60245 -72.17228 36126 ft 448 kts 340°
2026-04-19 11:00 -44.54199 -72.19348 36133 ft 447 kts 340°
2026-04-19 11:00 -44.48173 -72.21458 36158 ft 446 kts 340°
2026-04-19 11:01 -44.42137 -72.23567 36154 ft 447 kts 340°
2026-04-19 11:01 -44.36134 -72.25664 36127 ft 448 kts 341°
2026-04-19 11:02 -44.30078 -72.27770 36172 ft 448 kts 341°
2026-04-19 11:02 -44.24014 -72.29876 36176 ft 450 kts 341°
2026-04-19 11:03 -44.17914 -72.31993 36150 ft 452 kts 341°
2026-04-19 11:03 -44.11811 -72.34101 36177 ft 452 kts 341°
2026-04-19 11:04 -44.05715 -72.36200 36189 ft 449 kts 341°
2026-04-19 11:04 -43.99650 -72.38285 36155 ft 447 kts 340°
2026-04-19 11:05 -43.93616 -72.40357 36174 ft 446 kts 340°
2026-04-19 11:05 -43.87644 -72.42410 36176 ft 444 kts 340°
2026-04-19 11:06 -43.81653 -72.44460 36164 ft 443 kts 340°
2026-04-19 11:06 -43.75671 -72.46503 36182 ft 442 kts 340°
2026-04-19 11:07 -43.69700 -72.48537 36184 ft 442 kts 340°
2026-04-19 11:07 -43.63724 -72.50570 36184 ft 443 kts 340°
2026-04-19 11:08 -43.57736 -72.52603 36177 ft 443 kts 340°
2026-04-19 11:08 -43.51750 -72.54630 36181 ft 443 kts 340°
2026-04-19 11:09 -43.45754 -72.56657 36168 ft 444 kts 340°
2026-04-19 11:09 -43.39758 -72.58678 36175 ft 444 kts 340°
2026-04-19 11:10 -43.33749 -72.60701 36204 ft 445 kts 341°
2026-04-19 11:10 -43.27720 -72.62727 36148 ft 446 kts 341°
2026-04-19 11:11 -43.21685 -72.64748 36175 ft 446 kts 341°
2026-04-19 11:11 -43.15658 -72.66765 36181 ft 446 kts 341°
2026-04-19 11:12 -43.09640 -72.68770 36186 ft 444 kts 341°
2026-04-19 11:12 -43.03669 -72.70763 36181 ft 444 kts 341°
2026-04-19 11:13 -42.97689 -72.72746 36166 ft 437 kts 341°
2026-04-19 11:13 -42.94755 -72.73711 35773 ft 432 kts 341°
2026-04-19 11:13 -42.91846 -72.74673 35170 ft 431 kts 341°
2026-04-19 11:14 -42.88923 -72.75643 34376 ft 432 kts 340°
2026-04-19 11:14 -42.86003 -72.76613 33529 ft 432 kts 340°
2026-04-19 11:14 -42.83079 -72.77585 32685 ft 432 kts 341°
2026-04-19 11:14 -42.80155 -72.78554 31886 ft 432 kts 341°
2026-04-19 11:15 -42.77237 -72.79516 31224 ft 429 kts 341°
2026-04-19 11:15 -42.74355 -72.80463 30648 ft 424 kts 341°
2026-04-19 11:15 -42.71502 -72.81401 30021 ft 420 kts 341°
2026-04-19 11:15 -42.68661 -72.82336 29378 ft 416 kts 341°
2026-04-19 11:16 -42.65866 -72.83255 28794 ft 410 kts 341°
2026-04-19 11:16 -42.63115 -72.84158 28228 ft 406 kts 341°
2026-04-19 11:16 -42.60380 -72.85057 27659 ft 401 kts 341°
2026-04-19 11:16 -42.57675 -72.85946 27101 ft 398 kts 341°
2026-04-19 11:17 -42.54997 -72.86826 26544 ft 394 kts 341°
2026-04-19 11:17 -42.52343 -72.87698 25982 ft 391 kts 341°
2026-04-19 11:17 -42.49716 -72.88558 25460 ft 388 kts 341°
2026-04-19 11:17 -42.47098 -72.89414 24938 ft 385 kts 341°
2026-04-19 11:18 -42.44523 -72.90233 24427 ft 383 kts 344°
2026-04-19 11:18 -42.41873 -72.90596 23925 ft 385 kts 353°
2026-04-19 11:18 -42.39196 -72.90617 23364 ft 384 kts 355°
2026-04-19 11:18 -42.36531 -72.90594 22803 ft 381 kts 355°
2026-04-19 11:19 -42.33889 -72.90573 22279 ft 378 kts 354°
2026-04-19 11:19 -42.31278 -72.90569 21788 ft 375 kts 354°
2026-04-19 11:19 -42.28670 -72.90582 21285 ft 373 kts 354°
2026-04-19 11:19 -42.26072 -72.90608 20810 ft 375 kts 354°
2026-04-19 11:20 -42.23435 -72.90646 20326 ft 384 kts 354°
2026-04-19 11:20 -42.20750 -72.90687 19818 ft 386 kts 354°
2026-04-19 11:20 -42.18066 -72.90727 19308 ft 384 kts 354°
2026-04-19 11:20 -42.15406 -72.90765 18806 ft 381 kts 354°
2026-04-19 11:21 -42.12769 -72.90803 18267 ft 377 kts 354°
2026-04-19 11:21 -42.10156 -72.90841 17721 ft 374 kts 354°
2026-04-19 11:21 -42.07572 -72.90880 17219 ft 369 kts 354°
2026-04-19 11:22 -42.02485 -72.90958 16242 ft 362 kts 354°
2026-04-19 11:22 -41.99985 -72.90997 15771 ft 358 kts 354°
2026-04-19 11:22 -41.97508 -72.91035 15301 ft 355 kts 354°
2026-04-19 11:22 -41.95052 -72.91073 14835 ft 351 kts 354°
2026-04-19 11:23 -41.92614 -72.91111 14373 ft 348 kts 355°
2026-04-19 11:23 -41.90193 -72.91148 13909 ft 346 kts 355°
2026-04-19 11:23 -41.88606 -72.91173 13570 ft 344 kts 355°
2026-04-19 11:23 -41.86219 -72.91210 13086 ft 342 kts 355°
2026-04-19 11:24 -41.83841 -72.91247 12628 ft 342 kts 355°
2026-04-19 11:24 -41.81446 -72.91286 12169 ft 348 kts 355°
2026-04-19 11:24 -41.78998 -72.91327 11709 ft 355 kts 356°
2026-04-19 11:24 -41.76523 -72.91365 11232 ft 356 kts 356°
2026-04-19 11:25 -41.74071 -72.91399 10999 ft 346 kts 356°
2026-04-19 11:25 -41.71714 -72.91430 10835 ft 333 kts 356°
2026-04-19 11:25 -41.69445 -72.91462 10683 ft 320 kts 356°
2026-04-19 11:25 -41.67260 -72.91494 10554 ft 308 kts 355°
2026-04-19 11:26 -41.65156 -72.91526 10432 ft 296 kts 355°
2026-04-19 11:26 -41.63135 -72.91557 10305 ft 285 kts 355°
2026-04-19 11:26 -41.61191 -72.91587 10184 ft 274 kts 355°
2026-04-19 11:26 -41.59302 -72.91617 9844 ft 271 kts 355°
2026-04-19 11:27 -41.57427 -72.91654 9506 ft 268 kts 354°
2026-04-19 11:27 -41.55560 -72.91838 9176 ft 271 kts 351°
2026-04-19 11:27 -41.53672 -72.92096 8859 ft 274 kts 351°
2026-04-19 11:27 -41.51769 -72.92354 8535 ft 276 kts 351°
2026-04-19 11:28 -41.49857 -72.92601 8211 ft 274 kts 352°
2026-04-19 11:28 -41.47967 -72.92838 7884 ft 272 kts 352°
2026-04-19 11:28 -41.46119 -72.93067 7581 ft 270 kts 352°
2026-04-19 11:28 -41.44231 -72.93301 7259 ft 268 kts 352°
2026-04-19 11:29 -41.42404 -72.93526 6957 ft 267 kts 352°
2026-04-19 11:29 -41.40557 -72.93753 6651 ft 266 kts 353°
2026-04-19 11:29 -41.38712 -72.93979 6327 ft 266 kts 353°
2026-04-19 11:29 -41.36868 -72.94205 6009 ft 266 kts 353°
2026-04-19 11:30 -41.35027 -72.94431 5703 ft 265 kts 353°
2026-04-19 11:30 -41.33190 -72.94656 5404 ft 264 kts 354°
2026-04-19 11:30 -41.31364 -72.94881 5089 ft 264 kts 354°
2026-04-19 11:30 -41.29538 -72.95104 4785 ft 261 kts 353°
2026-04-19 11:31 -41.27831 -72.95737 4461 ft 253 kts 326°
2026-04-19 11:31 -41.26654 -72.97391 4194 ft 247 kts 296°
2026-04-19 11:31 -41.26131 -72.99534 4062 ft 242 kts 276°
2026-04-19 11:31 -41.26014 -73.01830 3662 ft 255 kts 270°
2026-04-19 11:32 -41.25985 -73.04163 3486 ft 247 kts 269°
2026-04-19 11:32 -41.26277 -73.06303 3309 ft 229 kts 242°
2026-04-19 11:32 -41.27273 -73.07821 3203 ft 212 kts 214°
2026-04-19 11:32 -41.28544 -73.08706 3009 ft 201 kts 198°
2026-04-19 11:33 -41.29894 -73.08958 2723 ft 192 kts 179°
2026-04-19 11:33 -41.31176 -73.08971 2538 ft 182 kts 180°
2026-04-19 11:33 -41.32419 -73.09007 2268 ft 173 kts 181°
2026-04-19 11:33 -41.33636 -73.09045 2050 ft 177 kts 181°
2026-04-19 11:34 -41.34855 -73.09083 1816 ft 175 kts 181°
2026-04-19 11:34 -41.36066 -73.09121 1558 ft 173 kts 181°
2026-04-19 11:34 -41.37271 -73.09159 1331 ft 173 kts 180°
2026-04-19 11:34 -41.38471 -73.09196 1099 ft 172 kts 181°
2026-04-19 11:35 -41.39650 -73.09236 871 ft 170 kts 181°
2026-04-19 11:35 -41.40829 -73.09275 655 ft 168 kts 180°
2026-04-19 11:35 -41.41986 -73.09276 430 ft 165 kts 181°
2026-04-19 11:35 -41.43143 -73.09373 273 ft 162 kts 181°
2026-04-19 11:36 -41.43794 -73.09389 280 ft 23 kts 181°
2026-04-19 11:36 -41.43945 -73.09396 282 ft 18 kts 184°
2026-04-19 11:36 -41.44042 -73.09423 282 ft 12 kts 223°
2026-04-19 11:36 -41.44060 -73.09478 283 ft 0 kts 258°
2026-04-19 11:37 -41.44062 -73.09493 283 ft 5 kts 260°
2026-04-19 11:37 -41.44059 -73.09570 283 ft 11 kts 290°
2026-04-19 11:37 -41.43999 -73.09616 282 ft 11 kts 353°
2026-04-19 11:37 -41.43921 -73.09619 281 ft 12 kts
2026-04-19 11:38 -41.43838 -73.09616 281 ft 12 kts
2026-04-19 11:38 -41.43749 -73.09613 280 ft 13 kts
2026-04-19 11:38 -41.43655 -73.09612 279 ft 14 kts
2026-04-19 11:38 -41.43553 -73.09609 278 ft 15 kts
2026-04-19 11:39 -41.43461 -73.09599 277 ft 11 kts
2026-04-19 11:39 -41.43415 -73.09642 276 ft 8 kts 287°
2026-04-19 11:39 -41.43409 -73.09718 276 ft 9 kts 273°
2026-04-19 11:39 -41.43409 -73.09735 276 ft 0 kts 273°